PISAT (41784 NORAD) Tracking and Keplerian Element Data

This shows tracking and keplerian element data for the satellite.

Feedback or suggestion? Click here.




ElementValue
Catalog41784
NamePISAT
Epoch Orbit11456
Epoch Day322.77587778
Epoch Year2018
RAAN22.2102
Inclination98.1004
Eccentricity0.0031202
Argument of Perigee330.6011
Mean Anonmoly29.3434
Mean Motion14.63380319
Decay Rate6.9E-07
L11 41784U 16059B 18322.77587778 .00000069 00000-0 22567-4 0 9998
L22 41784 98.1004 22.2102 0031202 330.6011 29.3434 14.63380319114569

Live tracking and technical data element details for PISAT (NORAD 41784). PISAT can be tracked NOW for your location showing map with azimuth and elevation plus other details from your city location.

Track the satellite on the map from your city or location and see movement details for azimuth, elevation, latitude, longitude, range, height, and movement on the map or in text.







IsCatalogInMostPopularTable: catalog: 41784, numindb: 116
Update: records affected: 1



GetName: 41784 PISAT

Hit Count: updated at: Mon, 19 Nov 2018 13:11:08 GMT